• In Moldova, Republic
  • List of Countries
  • For 7 days
  • Water Temperature
  • Satellite Maps
  • Weather Map
  • Weather Widgets
  • user-avatar
    Login

    Hourly Weather Namibe

    Today, 28 April, Friday

    Time Temperature Precipitation Wind Pressure Humidity
    00:00 +28°C° 0 mm 3 mps 758 mmHg 51%
    01:00 +28°C° 0 mm 3 mps 759 mmHg 52%
    02:00 +28°C° 0 mm 3 mps 758 mmHg 52%
    03:00 +27°C° 0 mm 3 mps 758 mmHg 52%
    04:00 +27°C° 0 mm 3 mps 758 mmHg 52%
    05:00 +28°C° 0 mm 2 mps 758 mmHg 50%
    06:00 +28°C° 0 mm 2 mps 758 mmHg 49%
    07:00 +30°C° 0 mm 2 mps 759 mmHg 42%
    08:00 +31°C° 0 mm 2 mps 759 mmHg 37%
    09:00 +34°C° 0 mm 2 mps 759 mmHg 32%
    10:00 +36°C° 0 mm 2 mps 759 mmHg 27%
    11:00 +37°C° 0 mm 3 mps 758 mmHg 26%
    12:00 +38°C° 0 mm 4 mps 758 mmHg 26%
    13:00 +40°C° 0 mm 5 mps 757 mmHg 25%
    14:00 +39°C° 0 mm 6 mps 757 mmHg 28%
    15:00 +38°C° 0 mm 6 mps 757 mmHg 31%
    16:00 +36°C° 0 mm 6 mps 756 mmHg 33%
    17:00 +34°C° 0 mm 6 mps 757 mmHg 38%
    18:00 +33°C° 0 mm 5 mps 757 mmHg 43%
    19:00 +30°C° 0 mm 4 mps 758 mmHg 48%
    20:00 +30°C° 0 mm 4 mps 758 mmHg 49%
    21:00 +29°C° 0 mm 4 mps 759 mmHg 50%
    22:00 +29°C° 0 mm 3 mps 759 mmHg 50%
    23:00 +29°C° 0 mm 3 mps 759 mmHg 50%

    Tomorrow, 29 April, Saturday

    Time Temperature Precipitation Wind Pressure Humidity
    00:00 +29°C° 0 mm 3 mps 759 mmHg 50%
    01:00 +29°C° 0 mm 2 mps 759 mmHg 50%
    02:00 +28°C° 0 mm 3 mps 759 mmHg 49%
    03:00 +28°C° 0 mm 3 mps 759 mmHg 47%
    04:00 +28°C° 0 mm 3 mps 758 mmHg 46%
    05:00 +29°C° 0 mm 3 mps 759 mmHg 45%
    06:00 +29°C° 0 mm 3 mps 759 mmHg 44%
    07:00 +29°C° 0 mm 4 mps 759 mmHg 43%
    08:00 +32°C° 0 mm 4 mps 759 mmHg 39%
    09:00 +34°C° 0 mm 4 mps 760 mmHg 35%
    10:00 +36°C° 0 mm 4 mps 760 mmHg 30%
    11:00 +37°C° 0 mm 4 mps 759 mmHg 29%
    12:00 +40°C° 0 mm 5 mps 759 mmHg 28%
    13:00 +41°C° 0 mm 6 mps 758 mmHg 26%
    14:00 +39°C° 0 mm 7 mps 758 mmHg 30%
    15:00 +38°C° 0 mm 7 mps 757 mmHg 33%
    16:00 +35°C° 0 mm 8 mps 757 mmHg 37%
    17:00 +34°C° 0 mm 8 mps 757 mmHg 40%
    18:00 +32°C° 0 mm 7 mps 758 mmHg 44%
    19:00 +30°C° 0 mm 6 mps 758 mmHg 47%
    20:00 +30°C° 0 mm 6 mps 759 mmHg 46%
    21:00 +30°C° 0 mm 5 mps 759 mmHg 45%
    22:00 +30°C° 0 mm 4 mps 759 mmHg 44%
    23:00 +29°C° 0 mm 4 mps 759 mmHg 45%

    Day after tomorrow, 30 April, Sunday

    Time Temperature Precipitation Wind Pressure Humidity
    00:00 +29°C° 0 mm 4 mps 759 mmHg 46%
    01:00 +29°C° 0 mm 4 mps 759 mmHg 47%
    02:00 +28°C° 0 mm 4 mps 759 mmHg 48%
    03:00 +28°C° 0 mm 4 mps 758 mmHg 49%
    04:00 +28°C° 0 mm 3 mps 758 mmHg 50%
    05:00 +28°C° 0 mm 3 mps 758 mmHg 48%
    06:00 +29°C° 0 mm 4 mps 759 mmHg 46%
    07:00 +29°C° 0 mm 4 mps 759 mmHg 44%
    08:00 +33°C° 0 mm 4 mps 759 mmHg 39%
    09:00 +35°C° 0 mm 4 mps 759 mmHg 33%
    10:00 +38°C° 0 mm 4 mps 759 mmHg 28%
    11:00 +40°C° 0 mm 4 mps 759 mmHg 26%
    12:00 +41°C° 0 mm 5 mps 758 mmHg 24%
    13:00 +43°C° 0 mm 5 mps 757 mmHg 22%
    14:00 +42°C° 0 mm 6 mps 757 mmHg 24%
    15:00 +41°C° 0 mm 7 mps 756 mmHg 26%
    16:00 +41°C° 0 mm 8 mps 755 mmHg 28%
    17:00 +38°C° 0 mm 7 mps 756 mmHg 36%
    18:00 +35°C° 0 mm 7 mps 756 mmHg 44%
    19:00 +32°C° 0 mm 6 mps 757 mmHg 51%
    20:00 +32°C° 0 mm 6 mps 757 mmHg 52%
    21:00 +30°C° 0 mm 5 mps 758 mmHg 52%
    22:00 +30°C° 0 mm 5 mps 758 mmHg 52%
    23:00 +30°C° 0 mm 4 mps 758 mmHg 54%

    1 May, Monday

    Time Temperature Precipitation Wind Pressure Humidity
    00:00 +29°C° 0 mm 4 mps 758 mmHg 55%
    01:00 +29°C° 0 mm 4 mps 758 mmHg 56%
    02:00 +29°C° 0 mm 3 mps 757 mmHg 57%
    03:00 +28°C° 0 mm 3 mps 757 mmHg 58%
    04:00 +28°C° 0 mm 3 mps 757 mmHg 59%
    05:00 +28°C° 0 mm 3 mps 757 mmHg 56%
    06:00 +29°C° 0 mm 3 mps 758 mmHg 52%
    07:00 +29°C° 0 mm 3 mps 758 mmHg 49%
    08:00 +31°C° 0 mm 3 mps 758 mmHg 40%
    09:00 +35°C° 0 mm 3 mps 758 mmHg 32%
    10:00 +38°C° 0 mm 3 mps 758 mmHg 23%
    11:00 +40°C° 0 mm 4 mps 758 mmHg 22%
    12:00 +41°C° 0 mm 4 mps 757 mmHg 20%
    13:00 +42°C° 0 mm 5 mps 756 mmHg 19%
    14:00 +42°C° 0 mm 5 mps 756 mmHg 22%
    15:00 +41°C° 0 mm 6 mps 755 mmHg 25%
    16:00 +40°C° 0 mm 6 mps 755 mmHg 28%
    17:00 +36°C° 0 mm 6 mps 756 mmHg 37%
    18:00 +34°C° 0 mm 5 mps 756 mmHg 46%
    19:00 +30°C° 0 mm 4 mps 757 mmHg 55%
    20:00 +30°C° 0 mm 4 mps 757 mmHg 56%
    21:00 +30°C° 0 mm 3 mps 757 mmHg 57%
    22:00 +29°C° 0 mm 2 mps 758 mmHg 59%
    23:00 +29°C° 0 mm 2 mps 758 mmHg 59%

    2 May, Tuesday

    Time Temperature Precipitation Wind Pressure Humidity
    00:00 +29°C° 0 mm 2 mps 757 mmHg 59%
    01:00 +29°C° 0 mm 2 mps 757 mmHg 58%
    02:00 +29°C° 0 mm 2 mps 757 mmHg 57%
    03:00 +28°C° 0 mm 2 mps 757 mmHg 55%
    04:00 +28°C° 0 mm 2 mps 757 mmHg 53%
    05:00 +28°C° 0 mm 2 mps 757 mmHg 48%
    06:00 +28°C° 0 mm 2 mps 758 mmHg 43%
    07:00 +28°C° 0 mm 2 mps 758 mmHg 38%
    08:00 +31°C° 0 mm 2 mps 758 mmHg 32%
    09:00 +35°C° 0 mm 3 mps 758 mmHg 26%
    10:00 +37°C° 0 mm 3 mps 758 mmHg 20%
    11:00 +39°C° 0 mm 3 mps 757 mmHg 19%
    12:00 +40°C° 0 mm 3 mps 757 mmHg 17%
    13:00 +42°C° 0 mm 3 mps 756 mmHg 16%
    14:00 +41°C° 0 mm 4 mps 755 mmHg 18%
    15:00 +40°C° 0 mm 5 mps 755 mmHg 20%
    16:00 +40°C° 0 mm 5 mps 755 mmHg 23%
    17:00 +37°C° 0 mm 4 mps 755 mmHg 30%
    18:00 +34°C° 0 mm 3 mps 756 mmHg 38%
    19:00 +31°C° 0 mm 3 mps 757 mmHg 45%
    20:00 +30°C° 0 mm 2 mps 757 mmHg 48%
    21:00 +30°C° 0 mm 2 mps 757 mmHg 50%
    22:00 +29°C° 0 mm 2 mps 758 mmHg 52%
    23:00 +29°C° 0 mm 2 mps 758 mmHg 52%

    3 May, Wednesday

    Time Temperature Precipitation Wind Pressure Humidity
    00:00 +29°C° 0 mm 2 mps 758 mmHg 53%
    01:00 +29°C° 0 mm 2 mps 757 mmHg 53%
    02:00 +29°C° 0 mm 2 mps 757 mmHg 50%
    03:00 +28°C° 0 mm 2 mps 757 mmHg 48%
    04:00 +28°C° 0 mm 2 mps 757 mmHg 46%
    05:00 +28°C° 0 mm 2 mps 757 mmHg 43%
    06:00 +28°C° 0 mm 3 mps 758 mmHg 41%
    07:00 +28°C° 0 mm 3 mps 758 mmHg 39%
    08:00 +31°C° 0 mm 3 mps 758 mmHg 34%
    09:00 +35°C° 0 mm 3 mps 758 mmHg 28%
    10:00 +37°C° 0 mm 3 mps 758 mmHg 23%
    11:00 +38°C° 0 mm 3 mps 757 mmHg 21%
    12:00 +39°C° 0 mm 3 mps 756 mmHg 20%
    13:00 +40°C° 0 mm 3 mps 756 mmHg 18%
    14:00 +41°C° 0 mm 4 mps 755 mmHg 19%
    15:00 +41°C° 0 mm 4 mps 755 mmHg 20%
    16:00 +41°C° 0 mm 5 mps 755 mmHg 21%
    17:00 +38°C° 0 mm 4 mps 755 mmHg 26%
    18:00 +35°C° 0 mm 3 mps 756 mmHg 32%
    19:00 +33°C° 0 mm 3 mps 756 mmHg 37%
    20:00 +32°C° 0 mm 2 mps 757 mmHg 39%
    21:00 +31°C° 0 mm 1 mps 757 mmHg 40%
    22:00 +31°C° 0 mm 1 mps 758 mmHg 41%
    23:00 +30°C° 0 mm 1 mps 758 mmHg 42%
    Show more